When you browse on this site, cookies collect data to enhance your experience and personalize the content and advertising you see.
Visit our Privacy Policy to learn more. By continuing to use the site, you agree to this use of cookies and data.
  • în România
  • Lista ţărilor
  • Pe 7 zile
  • Temperatura apei
  • Meteo pe hartă
  • Widget-uri
  • user-avatar
    Intrare

    Meteo pe oră la Saint-Malo

    Astăzi, 21 August, Miercuri

    Timp Temperatura Precipitaţii Vânt Presiune Umiditate
    00:00 +12°C° 0 mm 1 m/s 770 mmHg 85%
    01:00 +12°C° 0 mm 1 m/s 770 mmHg 86%
    02:00 +10°C° 0 mm 2 m/s 770 mmHg 87%
    03:00 +10°C° 0 mm 2 m/s 770 mmHg 88%
    04:00 +10°C° 0 mm 2 m/s 770 mmHg 88%
    05:00 +12°C° 0 mm 2 m/s 770 mmHg 88%
    06:00 +12°C° 0 mm 2 m/s 770 mmHg 88%
    07:00 +14°C° 0 mm 2 m/s 770 mmHg 81%
    08:00 +16°C° 0 mm 2 m/s 770 mmHg 74%
    09:00 +18°C° 0 mm 2 m/s 770 mmHg 67%
    10:00 +20°C° 0 mm 2 m/s 770 mmHg 61%
    11:00 +21°C° 0 mm 2 m/s 769 mmHg 55%
    12:00 +24°C° 0 mm 1 m/s 769 mmHg 50%
    13:00 +24°C° 0 mm 2 m/s 769 mmHg 49%
    14:00 +24°C° 0 mm 2 m/s 768 mmHg 49%
    15:00 +24°C° 0 mm 3 m/s 768 mmHg 49%
    16:00 +22°C° 0 mm 3 m/s 768 mmHg 55%
    17:00 +21°C° 0 mm 4 m/s 768 mmHg 61%
    18:00 +20°C° 0 mm 4 m/s 768 mmHg 67%
    19:00 +18°C° 0 mm 4 m/s 768 mmHg 72%
    20:00 +17°C° 0 mm 3 m/s 768 mmHg 77%
    21:00 +14°C° 0 mm 3 m/s 769 mmHg 82%
    22:00 +14°C° 0 mm 3 m/s 769 mmHg 82%
    23:00 +14°C° 0 mm 2 m/s 769 mmHg 83%

    Mâine, 22 August, Joi

    Timp Temperatura Precipitaţii Vânt Presiune Umiditate
    00:00 +14°C° 0 mm 2 m/s 769 mmHg 83%
    01:00 +14°C° 0 mm 1 m/s 769 mmHg 84%
    02:00 +14°C° 0 mm 1 m/s 768 mmHg 85%
    03:00 +13°C° 0 mm 1 m/s 768 mmHg 85%
    04:00 +13°C° 0 mm 1 m/s 768 mmHg 85%
    05:00 +14°C° 0 mm 1 m/s 768 mmHg 84%
    06:00 +14°C° 0 mm 1 m/s 768 mmHg 84%
    07:00 +16°C° 0 mm 1 m/s 769 mmHg 76%
    08:00 +19°C° 0 mm 1 m/s 769 mmHg 68%
    09:00 +21°C° 0 mm 1 m/s 769 mmHg 60%
    10:00 +23°C° 0 mm 1 m/s 769 mmHg 56%
    11:00 +24°C° 0 mm 2 m/s 769 mmHg 52%
    12:00 +25°C° 0 mm 2 m/s 768 mmHg 48%
    13:00 +25°C° 0 mm 2 m/s 768 mmHg 49%
    14:00 +25°C° 0 mm 3 m/s 768 mmHg 50%
    15:00 +25°C° 0 mm 4 m/s 768 mmHg 50%
    16:00 +23°C° 0 mm 4 m/s 768 mmHg 56%
    17:00 +21°C° 0 mm 4 m/s 767 mmHg 61%
    18:00 +20°C° 0 mm 4 m/s 767 mmHg 66%
    19:00 +18°C° 0 mm 4 m/s 768 mmHg 72%
    20:00 +17°C° 0 mm 4 m/s 768 mmHg 79%
    21:00 +16°C° 0 mm 3 m/s 768 mmHg 85%
    22:00 +14°C° 0 mm 3 m/s 768 mmHg 86%
    23:00 +14°C° 0 mm 3 m/s 768 mmHg 86%

    Poimâine, 23 August, Vineri

    Timp Temperatura Precipitaţii Vânt Presiune Umiditate
    00:00 +15°C° 0 mm 2 m/s 768 mmHg 87%
    01:00 +14°C° 0 mm 2 m/s 768 mmHg 86%
    02:00 +14°C° 0 mm 2 m/s 768 mmHg 85%
    03:00 +14°C° 0 mm 2 m/s 767 mmHg 83%
    04:00 +14°C° 0 mm 2 m/s 767 mmHg 82%
    05:00 +14°C° 0 mm 2 m/s 767 mmHg 81%
    06:00 +14°C° 0 mm 2 m/s 767 mmHg 79%
    07:00 +17°C° 0 mm 2 m/s 767 mmHg 72%
    08:00 +19°C° 0 mm 2 m/s 767 mmHg 64%
    09:00 +21°C° 0 mm 2 m/s 767 mmHg 57%
    10:00 +24°C° 0 mm 2 m/s 766 mmHg 52%
    11:00 +26°C° 0 mm 3 m/s 766 mmHg 48%
    12:00 +27°C° 0 mm 3 m/s 766 mmHg 43%
    13:00 +27°C° 0 mm 3 m/s 765 mmHg 43%
    14:00 +28°C° 0 mm 3 m/s 765 mmHg 42%
    15:00 +28°C° 0 mm 3 m/s 765 mmHg 42%
    16:00 +27°C° 0 mm 4 m/s 764 mmHg 48%
    17:00 +25°C° 0 mm 4 m/s 764 mmHg 54%
    18:00 +23°C° 0 mm 4 m/s 764 mmHg 61%
    19:00 +21°C° 0 mm 5 m/s 764 mmHg 65%
    20:00 +20°C° 0 mm 5 m/s 764 mmHg 70%
    21:00 +17°C° 0 mm 5 m/s 764 mmHg 75%
    22:00 +17°C° 0 mm 5 m/s 764 mmHg 73%
    23:00 +17°C° 0 mm 4 m/s 764 mmHg 72%

    24 August, Sâmbătă

    Timp Temperatura Precipitaţii Vânt Presiune Umiditate
    00:00 +17°C° 0 mm 4 m/s 763 mmHg 70%
    01:00 +17°C° 0 mm 4 m/s 763 mmHg 72%
    02:00 +16°C° 0 mm 3 m/s 763 mmHg 73%
    03:00 +16°C° 0 mm 3 m/s 762 mmHg 74%
    04:00 +16°C° 0 mm 3 m/s 762 mmHg 75%
    05:00 +17°C° 0 mm 3 m/s 762 mmHg 75%
    06:00 +17°C° 0 mm 3 m/s 762 mmHg 76%
    07:00 +19°C° 0 mm 3 m/s 762 mmHg 69%
    08:00 +22°C° 0 mm 3 m/s 762 mmHg 62%
    09:00 +26°C° 0 mm 3 m/s 762 mmHg 56%
    10:00 +27°C° 0 mm 3 m/s 762 mmHg 50%
    11:00 +29°C° 0 mm 3 m/s 762 mmHg 45%
    12:00 +31°C° 0 mm 3 m/s 761 mmHg 40%
    13:00 +31°C° 0 mm 3 m/s 761 mmHg 38%
    14:00 +33°C° 0 mm 4 m/s 761 mmHg 35%
    15:00 +33°C° 0 mm 4 m/s 760 mmHg 33%
    16:00 +31°C° 0 mm 3 m/s 760 mmHg 38%
    17:00 +30°C° 0 mm 3 m/s 760 mmHg 43%
    18:00 +29°C° 0 mm 2 m/s 760 mmHg 48%
    19:00 +27°C° 0 mm 3 m/s 760 mmHg 49%
    20:00 +25°C° 0 mm 3 m/s 760 mmHg 51%
    21:00 +22°C° 0 mm 3 m/s 761 mmHg 53%
    22:00 +23°C° 0 mm 2 m/s 760 mmHg 54%
    23:00 +21°C° 0 mm 2 m/s 760 mmHg 56%

    25 August, Duminică

    Timp Temperatura Precipitaţii Vânt Presiune Umiditate
    00:00 +20°C° 0 mm 2 m/s 760 mmHg 57%
    01:00 +20°C° 0 mm 2 m/s 760 mmHg 58%
    02:00 +19°C° 0 mm 2 m/s 760 mmHg 59%
    03:00 +19°C° 0 mm 2 m/s 760 mmHg 60%
    04:00 +19°C° 0 mm 2 m/s 760 mmHg 61%
    05:00 +19°C° 0 mm 2 m/s 760 mmHg 63%
    06:00 +18°C° 0 mm 3 m/s 760 mmHg 64%
    07:00 +20°C° 0 mm 3 m/s 760 mmHg 61%
    08:00 +22°C° 0 mm 3 m/s 761 mmHg 58%
    09:00 +24°C° 0 mm 3 m/s 761 mmHg 56%
    10:00 +25°C° 0 mm 3 m/s 761 mmHg 53%
    11:00 +26°C° 0 mm 3 m/s 761 mmHg 51%
    12:00 +27°C° 0 mm 3 m/s 761 mmHg 48%
    13:00 +27°C° 0 mm 3 m/s 761 mmHg 52%
    14:00 +26°C° 0 mm 4 m/s 761 mmHg 56%
    15:00 +26°C° 0 mm 4 m/s 761 mmHg 60%
    16:00 +23°C° 0 mm 5 m/s 761 mmHg 65%
    17:00 +22°C° 0 mm 5 m/s 762 mmHg 70%
    18:00 +20°C° 0 mm 5 m/s 762 mmHg 74%
    19:00 +19°C° 0 mm 5 m/s 762 mmHg 81%
    20:00 +17°C° 0 mm 5 m/s 763 mmHg 88%
    21:00 +15°C° 0 mm 4 m/s 763 mmHg 94%
    22:00 +15°C° 0 mm 4 m/s 763 mmHg 95%
    23:00 +15°C° 0 mm 4 m/s 764 mmHg 95%

    26 August, Luni

    Timp Temperatura Precipitaţii Vânt Presiune Umiditate
    00:00 +15°C° 0 mm 4 m/s 764 mmHg 96%
    01:00 +15°C° 0 mm 4 m/s 764 mmHg 96%
    02:00 +15°C° 0 mm 4 m/s 764 mmHg 96%
    03:00 +15°C° 0 mm 4 m/s 764 mmHg 96%
    04:00 +15°C° 0 mm 4 m/s 764 mmHg 96%
    05:00 +15°C° 0 mm 4 m/s 765 mmHg 96%
    06:00 +16°C° 0 mm 3 m/s 765 mmHg 96%
    07:00 +18°C° 0 mm 3 m/s 765 mmHg 89%
    08:00 +19°C° 0 mm 3 m/s 765 mmHg 81%
    09:00 +21°C° 0 mm 3 m/s 765 mmHg 74%
    10:00 +21°C° 0 mm 4 m/s 765 mmHg 69%
    11:00 +22°C° 0 mm 4 m/s 765 mmHg 64%
    12:00 +23°C° 0 mm 4 m/s 765 mmHg 59%
    13:00 +23°C° 0 mm 4 m/s 765 mmHg 58%
    14:00 +23°C° 0 mm 4 m/s 765 mmHg 57%
    15:00 +23°C° 0 mm 4 m/s 765 mmHg 57%
    16:00 +22°C° 0 mm 4 m/s 765 mmHg 63%
    17:00 +21°C° 0 mm 4 m/s 765 mmHg 69%
    18:00 +19°C° 0 mm 4 m/s 765 mmHg 75%
    19:00 +18°C° 0 mm 3 m/s 765 mmHg 80%
    20:00 +17°C° 0 mm 3 m/s 766 mmHg 86%
    21:00 +14°C° 0 mm 3 m/s 766 mmHg 91%
    22:00 +15°C° 0 mm 2 m/s 766 mmHg 91%
    23:00 +15°C° 0 mm 2 m/s 766 mmHg 91%
    Arată mai mult